Regional Weather Roundup
Issued by NWS Cleveland, OH

Home | Current Version | Previous Version | Graphics & Text | Print | Product List | Glossary On
Versions: 1 2 3 4 5 6 7 8 9 10 11 12 13 14 15 16 17 18 19 20 21 22 23 24 25 26 27 28 29 30 31 32 33 34 35 36 37 38 39 40 41 42 43 44 45 46 47 48 49 50
000
ASUS41 KCLE 011810
RWRCLE
OHIO REGIONAL WEATHER ROUNDUP
NATIONAL WEATHER SERVICE WILMINGTON, OH
100 PM EST SUN FEB 01 2015

NOTE: "FAIR" INDICATES FEW OR NO CLOUDS BELOW 12,000 FEET WITH NO
SIGNIFICANT WEATHER AND/OR OBSTRUCTIONS TO VISIBILITY.

OHZ001>008-015>018-024>027-034-035-043-044-011900-
   NORTHWEST OHIO

CITY           SKY/WX    TMP DP  RH WIND       PRES   REMARKS
DEFIANCE       SNOW      28  26  92 E16G23    29.90F VSB 1/2 WCI  16
FINDLAY        LGT SNOW  34  32  92 E12       29.87F FOG     WCI  25
TOLEDO EXPRESS SNOW      27  23  86 E16G28    29.93F VSB 1/2 WCI  14
TOLEDO EXEC    LGT SNOW  29  25  85 NE15G23   29.94F VSB 3/4 WCI  18
LIMA           CLOUDY    35  32  88 E10       29.85F FOG     WCI  27
$$

OHZ009>014-019>023-028>033-038-089-011900-
   NORTHEAST OHIO

CITY           SKY/WX    TMP DP  RH WIND       PRES   REMARKS
CLE-HOPKINS    SNOW      30  28  92 E9        30.00F VSB 1/2 WCI  22
CLE-LAKEFRONT  SNOW      32  29  88 NE8       29.98F VSB 1/2 WCI  25
CUY CO. ARPT   SNOW      32  30  93 E9        30.01F VSB 1/2 WCI  24
LORAIN-ELYRIA  LGT SNOW  30  29  96 E12       29.94F VSB 3/4 WCI  20
ASHTABULA      LGT SNOW  29  26  89 SE5       30.04F VSB 3/4 WCI  24
AKRON-CANTON   LGTSLEET  31  28  89 E9        29.94F VSB 1   WCI  23
WOOSTER        CLOUDY    30  28  92 E10       29.92F FOG     WCI  21
MANSFIELD      CLOUDY    32  30  92 SE10      29.91F WCI  24
YOUNGSTOWN     HVY SNOW  29  26  89 E7        30.00F VSB 1/4 WCI  22
$$

OHZ042-051>053-060>062-070>072-077>081-011900-
  SOUTHWEST OHIO

CITY           SKY/WX    TMP DP  RH WIND       PRES   REMARKS
CINC-COVINGTON RAIN      42  35  76 S16       29.79F
CINC-LUNKEN    LGT RAIN  42  32  67 S10       29.83F
HAMILTON       LGT RAIN  42  30  62 VRB7      29.81F
DAYTON         CLOUDY    39  29  67 S13       29.83F
WRIGHT-PAT AFB PTSUNNY   39  29  67 SE10      29.83F
DAYTON GENERAL LGT RAIN  41  26  55 SE14G22   29.81F
WILMINGTON     CLOUDY    40  21  46 SE14      29.83F
$$

OHZ036-037-039>041-045>050-054>059-063>069-073>076-082>088-011900-
  CENTRAL AND SOUTHEAST OHIO

CITY           SKY/WX    TMP DP  RH WIND       PRES   REMARKS
COLUMBUS       CLOUDY    34  31  88 SE8       29.91F WCI  27
OSU AIRPORT    CLOUDY    35  32  88 SE12      29.89F WCI  27
BOLTON FIELD   CLOUDY    36  32  87 SE9G17    29.89F
RICKENBACK AFB CLOUDY    35  32  90 SE8       29.90F WCI  28
NEWARK         CLOUDY    35  31  85 SE9       29.92F WCI  28
MARION         LGT SNOW  34  31  88 E8        29.89F FOG     WCI  27
LANCASTER      CLOUDY    35  31  85 SE12      29.92F WCI  27
ZANESVILLE     CLOUDY    33  29  85 SE7       29.94F WCI  27
NEW PHILLY     NOT AVBL
$$



USA.gov is the U.S. government's official web portal to all federal, state and local government web resources and services.